Satellite: RAX-2 Catalog number: 37853 Epoch time: 12221.91088141 Element set: 0260 Inclination: 101.7098 deg RA of node: 286.1113 deg Eccentricity: 0.0246265 Arg of perigee: 200.5342 deg Mean anomaly: 158.5823 deg Mean motion: 14.80326871 rev/day Decay rate: 4.243e-05 rev/day^2 Epoch rev: 04220 Checksum: 267
Satellite: AUBIESAT Catalog number: 37854 Epoch time: 12222.86516696 Element set: 253 Inclination: 101.7099 deg RA of node: 287.8187 deg Eccentricity: 0.0247306 Arg of perigee: 196.9647 deg Mean anomaly: 162.3176 deg Mean motion: 14.80747547 rev/day Decay rate: 5.162e-05 rev/day^2 Epoch rev: 4233 Checksum: 332
Satellite: HRBE Catalog number: 37855 Epoch time: 12222.88431804 Element set: 250 Inclination: 101.7114 deg RA of node: 287.7847 deg Eccentricity: 0.0247318 Arg of perigee: 197.1507 deg Mean anomaly: 162.1244 deg Mean motion: 14.80585841 rev/day Decay rate: 4.773e-05 rev/day^2 Epoch rev: 4233 Checksum: 298
Satellite: RS-39 Catalog number: 38051 Epoch time: 12222.85105324 Element set: 592 Inclination: 051.6375 deg RA of node: 263.9678 deg Eccentricity: 0.0013430 Arg of perigee: 228.6761 deg Mean anomaly: 112.7608 deg Mean motion: 15.25123708 rev/day Decay rate: 1.1021e-04 rev/day^2 Epoch rev: 3015 Checksum: 274
Satellite: E-STAR Catalog number: 38079 Epoch time: 12222.34308485 Element set: 414 Inclination: 069.4844 deg RA of node: 193.9110 deg Eccentricity: 0.0730368 Arg of perigee: 180.8450 deg Mean anomaly: 179.1500 deg Mean motion: 14.17990179 rev/day Decay rate: 3.3076e-04 rev/day^2 Epoch rev: 2511 Checksum: 299
Satellite: GOLIAT Catalog number: 38085 Epoch time: 12222.30168860 Element set: 383 Inclination: 069.4905 deg RA of node: 194.4478 deg Eccentricity: 0.0735699 Arg of perigee: 181.2098 deg Mean anomaly: 178.7275 deg Mean motion: 14.16949861 rev/day Decay rate: 3.2774e-04 rev/day^2 Epoch rev: 2509 Checksum: 349
Satellite: HORYU-2 Catalog number: 38340 Epoch time: 12222.87145132 Element set: 85 Inclination: 098.1753 deg RA of node: 162.7290 deg Eccentricity: 0.0013300 Arg of perigee: 154.9150 deg Mean anomaly: 205.2731 deg Mean motion: 14.70083450 rev/day Decay rate: 1.269e-05 rev/day^2 Epoch rev: 1236 Checksum: 256
Satellite: RS-40 Catalog number: 38736 Epoch time: 12222.60626955 Element set: 18 Inclination: 082.4813 deg RA of node: 349.3858 deg Eccentricity: 0.0017722 Arg of perigee: 288.1690 deg Mean anomaly: 071.7460 deg Mean motion: 12.42645811 rev/day Decay rate: 1.0e-07 rev/day^2 Epoch rev: 154 Checksum: 288
/EX